• In Hungary
  • List of Countries
  • For 7 days
  • Water Temperature
  • Satellite Maps
  • Weather Map
  • News
  • Weather Widgets
  • user-avatar
    Login

    Hourly Weather Yulbashevo

    Today, 24 May, Thursday

    Time Temperature Precipitation Wind Pressure Humidity
    00:00 +18°C° 0 mm 2 mps 745 mmHg 72%
    01:00 +17°C° 0 mm 2 mps 745 mmHg 73%
    02:00 +18°C° 0 mm 1 mps 745 mmHg 74%
    03:00 +16°C° 0 mm 1 mps 745 mmHg 75%
    04:00 +16°C° 0 mm 1 mps 744 mmHg 75%
    05:00 +18°C° 0 mm 1 mps 744 mmHg 71%
    06:00 +20°C° 0 mm 1 mps 744 mmHg 68%
    07:00 +20°C° 0 mm 2 mps 744 mmHg 65%
    08:00 +23°C° 0 mm 2 mps 744 mmHg 59%
    09:00 +24°C° 0 mm 3 mps 744 mmHg 54%
    10:00 +26°C° 0 mm 3 mps 744 mmHg 48%
    11:00 +27°C° 0 mm 3 mps 743 mmHg 45%
    12:00 +27°C° 0 mm 4 mps 743 mmHg 43%
    13:00 +28°C° 0 mm 4 mps 742 mmHg 40%
    14:00 +28°C° 0 mm 4 mps 742 mmHg 41%
    15:00 +28°C° 0 mm 4 mps 742 mmHg 41%
    16:00 +29°C° 0 mm 4 mps 741 mmHg 41%
    17:00 +27°C° 0 mm 4 mps 741 mmHg 49%
    18:00 +25°C° 0 mm 4 mps 741 mmHg 56%
    19:00 +24°C° 0 mm 3 mps 741 mmHg 63%
    20:00 +21°C° 0 mm 3 mps 741 mmHg 69%
    21:00 +19°C° 0 mm 2 mps 740 mmHg 74%
    22:00 +18°C° 0 mm 1 mps 740 mmHg 80%
    23:00 +18°C° 0.1 mm 1 mps 740 mmHg 81%

    Tomorrow, 25 May, Friday

    Time Temperature Precipitation Wind Pressure Humidity
    00:00 +18°C° 0.1 mm 1 mps 739 mmHg 81%
    01:00 +16°C° 0.1 mm 1 mps 739 mmHg 82%
    02:00 +16°C° 0.2 mm 1 mps 738 mmHg 82%
    03:00 +15°C° 0.2 mm 1 mps 738 mmHg 83%
    04:00 +15°C° 0.2 mm 1 mps 738 mmHg 84%
    05:00 +16°C° 0.1 mm 1 mps 738 mmHg 82%
    06:00 +18°C° 0.1 mm 1 mps 737 mmHg 80%
    07:00 +18°C° 0.1 mm 2 mps 737 mmHg 78%
    08:00 +19°C° 0 mm 2 mps 737 mmHg 73%
    09:00 +20°C° 0 mm 2 mps 737 mmHg 68%
    10:00 +23°C° 0 mm 2 mps 736 mmHg 63%
    11:00 +21°C° 0.2 mm 3 mps 736 mmHg 64%
    12:00 +21°C° 0.2 mm 5 mps 736 mmHg 66%
    13:00 +21°C° 0.2 mm 6 mps 736 mmHg 68%
    14:00 +19°C° 0.4 mm 6 mps 736 mmHg 73%
    15:00 +16°C° 0.4 mm 6 mps 736 mmHg 78%
    16:00 +15°C° 0.4 mm 5 mps 736 mmHg 82%
    17:00 +14°C° 0.3 mm 5 mps 736 mmHg 83%
    18:00 +13°C° 0.3 mm 5 mps 736 mmHg 83%
    19:00 +12°C° 0.3 mm 5 mps 736 mmHg 83%
    20:00 +12°C° 0.2 mm 5 mps 736 mmHg 83%
    21:00 +10°C° 0.2 mm 5 mps 736 mmHg 83%
    22:00 +9°C° 0.2 mm 5 mps 737 mmHg 83%
    23:00 +9°C° 0.1 mm 5 mps 737 mmHg 82%

    Day after tomorrow, 26 May, Saturday

    Time Temperature Precipitation Wind Pressure Humidity
    00:00 +8°C° 0.1 mm 5 mps 737 mmHg 81%
    01:00 +7°C° 0.1 mm 5 mps 737 mmHg 80%
    02:00 +7°C° 0.1 mm 6 mps 738 mmHg 77%
    03:00 +5°C° 0.1 mm 6 mps 738 mmHg 75%
    04:00 +5°C° 0.1 mm 7 mps 738 mmHg 73%
    05:00 +5°C° 0.1 mm 7 mps 739 mmHg 72%
    06:00 +6°C° 0.1 mm 7 mps 739 mmHg 70%
    07:00 +6°C° 0.1 mm 8 mps 740 mmHg 69%
    08:00 +7°C° 0 mm 8 mps 741 mmHg 64%
    09:00 +9°C° 0 mm 7 mps 741 mmHg 60%
    10:00 +10°C° 0 mm 7 mps 742 mmHg 55%
    11:00 +11°C° 0 mm 7 mps 742 mmHg 52%
    12:00 +11°C° 0 mm 7 mps 743 mmHg 49%
    13:00 +12°C° 0 mm 7 mps 743 mmHg 46%
    14:00 +12°C° 0 mm 7 mps 743 mmHg 47%
    15:00 +12°C° 0 mm 7 mps 744 mmHg 47%
    16:00 +12°C° 0 mm 7 mps 744 mmHg 47%
    17:00 +11°C° 0 mm 7 mps 745 mmHg 50%
    18:00 +10°C° 0 mm 6 mps 745 mmHg 53%
    19:00 +9°C° 0 mm 6 mps 745 mmHg 56%
    20:00 +8°C° 0 mm 5 mps 746 mmHg 57%
    21:00 +7°C° 0 mm 5 mps 746 mmHg 59%
    22:00 +6°C° 0 mm 4 mps 747 mmHg 61%
    23:00 +5°C° 0 mm 4 mps 747 mmHg 63%

    27 May, Sunday

    Time Temperature Precipitation Wind Pressure Humidity
    00:00 +4°C° 0 mm 3 mps 748 mmHg 65%
    01:00 +3°C° 0 mm 3 mps 748 mmHg 67%
    02:00 +4°C° 0 mm 2 mps 748 mmHg 67%
    03:00 +4°C° 0 mm 2 mps 749 mmHg 67%
    04:00 +3°C° 0 mm 2 mps 749 mmHg 67%
    05:00 +5°C° 0 mm 2 mps 749 mmHg 63%
    06:00 +7°C° 0 mm 2 mps 749 mmHg 59%
    07:00 +9°C° 0 mm 2 mps 749 mmHg 54%
    08:00 +10°C° 0 mm 3 mps 749 mmHg 52%
    09:00 +12°C° 0 mm 3 mps 749 mmHg 49%
    10:00 +14°C° 0 mm 4 mps 749 mmHg 46%
    11:00 +15°C° 0 mm 5 mps 748 mmHg 48%
    12:00 +16°C° 0 mm 5 mps 748 mmHg 50%
    13:00 +16°C° 0 mm 6 mps 747 mmHg 53%
    14:00 +17°C° 0 mm 6 mps 747 mmHg 54%
    15:00 +19°C° 0 mm 6 mps 746 mmHg 54%
    16:00 +19°C° 0 mm 6 mps 746 mmHg 55%
    17:00 +17°C° 0 mm 6 mps 745 mmHg 59%
    18:00 +17°C° 0 mm 5 mps 745 mmHg 63%
    19:00 +16°C° 0 mm 5 mps 744 mmHg 67%
    20:00 +15°C° 0 mm 5 mps 744 mmHg 69%
    21:00 +14°C° 0 mm 5 mps 744 mmHg 71%
    22:00 +13°C° 0 mm 5 mps 743 mmHg 73%
    23:00 +12°C° 0 mm 5 mps 743 mmHg 73%

    28 May, Monday

    Time Temperature Precipitation Wind Pressure Humidity
    00:00 +12°C° 0 mm 5 mps 742 mmHg 73%
    01:00 +11°C° 0 mm 6 mps 742 mmHg 73%
    02:00 +11°C° 0 mm 6 mps 742 mmHg 73%
    03:00 +10°C° 0 mm 6 mps 741 mmHg 74%
    04:00 +10°C° 0 mm 6 mps 741 mmHg 74%
    05:00 +11°C° 0.1 mm 6 mps 740 mmHg 75%
    06:00 +11°C° 0.1 mm 7 mps 740 mmHg 76%
    07:00 +11°C° 0.1 mm 7 mps 740 mmHg 77%
    08:00 +11°C° 0.7 mm 7 mps 740 mmHg 79%
    09:00 +11°C° 0.7 mm 7 mps 739 mmHg 81%
    10:00 +11°C° 0.7 mm 6 mps 739 mmHg 83%
    11:00 +11°C° 1.3 mm 6 mps 739 mmHg 83%
    12:00 +10°C° 1.3 mm 5 mps 739 mmHg 82%
    13:00 +10°C° 1.3 mm 5 mps 739 mmHg 82%
    14:00 +12°C° 0.2 mm 5 mps 739 mmHg 73%
    15:00 +11°C° 0.2 mm 6 mps 740 mmHg 64%
    16:00 +12°C° 0.2 mm 7 mps 740 mmHg 55%
    17:00 +11°C° 0.1 mm 6 mps 740 mmHg 58%
    18:00 +10°C° 0.1 mm 5 mps 740 mmHg 61%
    19:00 +10°C° 0.1 mm 4 mps 740 mmHg 64%
    20:00 +8°C° 0 mm 4 mps 740 mmHg 69%
    21:00 +7°C° 0 mm 3 mps 741 mmHg 74%
    22:00 +5°C° 0 mm 3 mps 741 mmHg 80%
    23:00 +4°C° 0 mm 3 mps 741 mmHg 82%

    29 May, Tuesday

    Time Temperature Precipitation Wind Pressure Humidity
    00:00 +4°C° 0 mm 3 mps 741 mmHg 84%
    01:00 +3°C° 0 mm 3 mps 741 mmHg 86%
    02:00 +2°C° 0 mm 3 mps 742 mmHg 86%
    03:00 +2°C° 0 mm 3 mps 742 mmHg 86%
    04:00 +1°C° 0 mm 3 mps 742 mmHg 85%
    05:00 +1°C° 0 mm 4 mps 742 mmHg 77%
    06:00 +4°C° 0 mm 4 mps 742 mmHg 69%
    07:00 +5°C° 0 mm 5 mps 742 mmHg 61%
    08:00 +6°C° 0 mm 5 mps 742 mmHg 56%
    09:00 +7°C° 0 mm 5 mps 742 mmHg 51%
    10:00 +9°C° 0 mm 5 mps 742 mmHg 47%
    11:00 +9°C° 0 mm 5 mps 741 mmHg 49%
    12:00 +10°C° 0 mm 5 mps 741 mmHg 51%
    13:00 +10°C° 0 mm 6 mps 740 mmHg 53%
    14:00 +12°C° 0.1 mm 5 mps 740 mmHg 57%
    15:00 +12°C° 0.1 mm 5 mps 739 mmHg 61%
    16:00 +12°C° 0.1 mm 5 mps 739 mmHg 64%
    17:00 +11°C° 0.3 mm 4 mps 738 mmHg 72%
    18:00 +11°C° 0.3 mm 4 mps 738 mmHg 79%
    19:00 +10°C° 0.3 mm 3 mps 738 mmHg 86%
    20:00 +9°C° 0.1 mm 3 mps 738 mmHg 87%
    21:00 +9°C° 0.1 mm 3 mps 738 mmHg 89%
    22:00 +8°C° 0.1 mm 3 mps 738 mmHg 91%
    23:00 +7°C° 0 mm 3 mps 737 mmHg 91%
    Show more